Miscellaneous Local Product
Issued by NWS Hastings, NE

Home | Current Version | Previous Version | Text Only | Print | Product List | Glossary Off
Versions: 1 2 3 4 5 6 7 8 9 10 11 12 13 14 15 16 17 18 19 20 21 22 23 24 25 26 27 28 29 30 31 32 33 34 35 36 37 38 39 40 41 42 43 44 45 46 47 48 49 50

000
AXUS43 KGID 241302
MISGRI

GID CWA HOURLY WEATHER ROUNDUP
NATIONAL WEATHER SERVICE HASTINGS NE
800 AM CDT THU MAY 24 2018

NOTE: "FAIR" INDICATES FEW OR NO CLOUDS BELOW 12,000 FEET WITH NO
SIGNIFICANT WEATHER AND/OR OBSTRUCTIONS TO VISIBILITY.

...SOUTH CENTRAL NEBRASKA...

CITY           SKY/WX    TMP DP  RH WIND       PRES   REMARKS
GRAND ISLAND   CLOUDY    68  64  87 E3        30.04F
KEARNEY        CLOUDY    65  60  84 E6        30.03F
HASTINGS       CLOUDY    69  64  84 E3        30.04R
ORD            CLOUDY    63  60  90 E6        30.00F
YORK           MOSUNNY   68  68 100 S5        30.06R
AURORA         PTSUNNY   67  65  91 CALM      30.05S
LEXINGTON      PTSUNNY   65  60  83 E9        30.02S
HOLDREGE       MOSUNNY   65  60  84 CALM      30.03R
HEBRON         PTSUNNY   70  64  80 SE7       30.04R

...NEBRASKA PANHANDLE...

CITY           SKY/WX    TMP DP  RH WIND       PRES   REMARKS
CHADRON        SUNNY     60  57  89 SW7       29.97S
ALLIANCE       SUNNY     52  52 100 SW5       30.02S
SCOTTSBLUFF    SUNNY     53  52  96 CALM      30.06R
SIDNEY         SUNNY     56  53  90 NW7       30.07R

...WESTERN AND NORTH CENTRAL NEBRASKA...

CITY           SKY/WX    TMP DP  RH WIND       PRES   REMARKS
VALENTINE      CLOUDY    67  59  75 SE6       29.96S
AINSWORTH      CLOUDY    64  59  85 SE16G23   29.96F
ONEILL         CLOUDY    67  60  78 S9        30.02S
BROKEN BOW     PTSUNNY   64  60  87 E12       30.00F
IMPERIAL       MOSUNNY   63  57  81 CALM      29.98S
NORTH PLATTE   PTSUNNY   65  59  81 SE14      30.00S
MCCOOK         MOSUNNY   65  58  78 NE5       29.99R

...EASTERN NEBRASKA...

CITY           SKY/WX    TMP DP  RH WIND       PRES   REMARKS
NORFOLK        PTSUNNY   69  66  90 SE7       30.03R
SO SIOUX CITY  PTSUNNY   70  64  81 SE6       30.03S
TEKAMAH        PTSUNNY   69  66  90 CALM      30.05R
ALBION         MOSUNNY   69  66  90 CALM      30.04S
OMAHA EPPLEY   CLOUDY    73  65  75 S14       30.05R
OFFUTT AFB     CLOUDY    72  67  83 S7        30.04S
MILLARD        CLOUDY    73  68  84 S9        30.06R
LINCOLN        CLOUDY    69  65  86 S9        30.05R
NEBRASKA CITY  MOSUNNY   71  70  96 S12       30.07S
BEATRICE       MOSUNNY   71  67  88 S8        30.06R
FALLS CITY     SUNNY     71  66  84 S12       30.06R

...NORTHERN KANSAS...

CITY           SKY/WX    TMP DP  RH WIND       PRES   REMARKS
GOODLAND       MOSUNNY   63  54  72 S16G24    30.00R
HILL CITY      CLOUDY    66  58  75 S7        29.99R
NORTON         SUNNY     66  57  72 SE5       30.00R
PHILLIPSBURG   SUNNY     63  63 100 E5        29.99S
SMITH CENTER     N/A     63  57  82 SE8       30.01S
HAYS           MOSUNNY   65  59  81 S7        30.00S
RUSSELL        CLOUDY    67  61  81 SE13      30.00R
CONCORDIA      MOSUNNY   70  61  73 S9        30.03S
SALINA         PTSUNNY   70  63  78 SE12      30.04S
TOPEKA         PTSUNNY   71  69  93 SE7       30.08R



USA.gov is the U.S. government's official web portal to all federal, state and local government web resources and services.